Flag for Germany Weather past 2 weeks in Zerbst/Anhalt, Saxony-Anhalt, Germany

Now
62 °F

Scattered clouds.


Feels Like: 62 °F
Forecast: 47 / 73 °F
Wind: 3 mph from Southeast

Location: Magdeburg


UV Index: 3 (Moderate)

Visibility: 19 mi


Pressure: 29.74 "Hg

Humidity: 61%

Dew point: 48 °F

Location of Zerbst/AnhaltLocation

Historic Weather in Zerbst/Anhalt

°F

Zerbst/Anhalt temperature yesterday

Maximum temperature yesterday: 68 °F (at 2:00 PM)
Minimum temperature yesterday: 48 °F (at 7:00 AM)
Average temperature yesterday: 59 °F

Past Weeks' High & Low Weather Summary

 TemperatureHumidityPressure
High69 °F (Apr 7, 4:00 PM)100% (Apr 19, 3:00 AM)30.47 "Hg (Apr 19, 3:00 AM)
Low31 °F (Apr 16, 6:00 AM)25% (Apr 16, 1:00 PM)29.75 "Hg (Apr 21, 10:00 AM)
Average51 °F74%30.04 "Hg
* Reported Apr 6 10:00 AM — Apr 21 10:00 AM, Zerbst/Anhalt, Weather by CustomWeather, © 2014

Note: Actual official high and low records may vary slightly from our data, if they occured in-between our weather recording intervals... More about our weather records

Advertising

Historic Weather Conditions — Data for Previous 24 hours

 ConditionsComfort  
Time TempWeatherWind HumidityBarometerVisibility
10:00 AM
Apr 21
59 °FPartly sunny.3 mph74%29.75 "Hg16 mi
9:00 AM55 °FPartly sunny.3 mph79%29.75 "Hg12 mi
8:00 AM53 °FOvercast.2 mph88%29.76 "Hg11 mi
7:00 AM53 °FOvercast.3 mph84%29.76 "Hg19 mi
6:00 AM54 °FOvercast.3 mph77%29.75 "Hg31 mi
4:00 AM56 °FOvercast.2 mph63%29.77 "Hg22 mi
3:00 AM56 °FOvercast.2 mph66%29.79 "Hg19 mi
2:00 AM57 °FOvercast.2 mph66%29.80 "Hg17 mi
1:00 AM54 °FOvercast.1 mph78%29.82 "Hg6 mi
12:00 AM56 °FOvercast.1 mph71%29.83 "Hg7 mi
11:00 PM
Apr 20
56 °FOvercast.1 mph70%29.83 "Hg11 mi
10:00 PM57 °FOvercast.1 mph68%29.83 "Hg14 mi
9:00 PM58 °FOvercast.1 mph64%29.83 "Hg12 mi
8:00 PM64 °FPassing clouds.2 mph46%29.81 "Hg25 mi
7:00 PM66 °FPassing clouds.3 mph43%29.81 "Hg25 mi
6:00 PM68 °FPassing clouds.5 mph37%29.81 "Hg25 mi
4:00 PM68 °FPartly sunny.5 mph41%29.83 "Hg19 mi
3:00 PM67 °FPassing clouds.5 mph43%29.85 "Hg22 mi
2:00 PM68 °FPassing clouds.3 mph45%29.86 "Hg19 mi
1:00 PM67 °FPassing clouds.5 mph53%29.87 "Hg16 mi
12:00 PM64 °FScattered clouds.6 mph58%29.88 "Hg16 mi
11:00 AM63 °FScattered clouds.6 mph60%29.89 "Hg16 mi
Weather by CustomWeather, © 2014

See weather overview